RYR5195 EDDF-EHRD

Flight info

Callsign RYR5195
Flight time 1h 7m
Altitude 24000
Route MARUN8M/25C MARUN Y152 ARPEG/N0457F300 Z850 HMM L602 RKN
Aircraft B738/M-SDE2E3FGHIRWXY/LB1

Departure

Time 2026-05-04 16:28
Airport Frankfurt Main Airport (EDDF)

Arrival

Time 2026-05-04 17:35
Airport Rotterdam The Hague Airport (EHRD)
Time Latitude Longitude Altitude Speed Heading
2026-05-04 15:38 50.04535 8.56579 362 ft 0 kts 115°
2026-05-04 16:08 50.04551 8.56525 360 ft 4 kts 117°
2026-05-04 16:09 50.04588 8.56473 357 ft 4 kts 181°
2026-05-04 16:09 50.04605 8.56479 362 ft 0 kts 204°
2026-05-04 16:13 50.04580 8.56461 355 ft 2 kts 205°
2026-05-04 16:14 50.04497 8.56304 357 ft 12 kts 249°
2026-05-04 16:14 50.04444 8.56084 355 ft 8 kts 249°
2026-05-04 16:15 50.04325 8.56066 354 ft 8 kts 159°
2026-05-04 16:16 50.04265 8.56189 359 ft 8 kts 148°
2026-05-04 16:16 50.04131 8.56307 354 ft 7 kts 95°
2026-05-04 16:17 50.04168 8.56447 355 ft 7 kts 69°
2026-05-04 16:18 50.04251 8.56796 359 ft 13 kts 69°
2026-05-04 16:18 50.04282 8.56930 358 ft 15 kts 70°
2026-05-04 16:19 50.04414 8.57478 364 ft 17 kts 69°
2026-05-04 16:19 50.04494 8.57815 365 ft 15 kts 69°
2026-05-04 16:20 50.04593 8.58230 367 ft 13 kts 69°
2026-05-04 16:20 50.04650 8.58464 370 ft 7 kts 69°
2026-05-04 16:21 50.04631 8.58576 369 ft 0 kts 160°
2026-05-04 16:24 50.04595 8.58589 371 ft 0 kts 161°
2026-05-04 16:25 50.04512 8.58612 370 ft 6 kts 197°
2026-05-04 16:26 50.04478 8.58551 369 ft 0 kts 246°
2026-05-04 16:26 50.04455 8.58450 369 ft 43 kts 248°
2026-05-04 16:27 50.03814 8.55773 441 ft 202 kts 252°
2026-05-04 16:28 50.02078 8.49109 3377 ft 225 kts 233°
2026-05-04 16:28 49.97769 8.46472 5162 ft 246 kts 191°
2026-05-04 16:29 49.89388 8.44542 6508 ft 314 kts 187°
2026-05-04 16:30 49.83666 8.43595 10349 ft 283 kts 188°
2026-05-04 16:31 49.79229 8.42816 10086 ft 348 kts 188°
2026-05-04 16:31 49.72554 8.41500 14142 ft 299 kts 190°
2026-05-04 16:32 49.65708 8.39536 14526 ft 373 kts 194°
2026-05-04 16:33 49.60775 8.37640 16854 ft 346 kts 197°
2026-05-04 16:33 49.56323 8.35578 18977 ft 336 kts 200°
2026-05-04 16:34 49.51613 8.32941 18787 ft 387 kts 203°
2026-05-04 16:34 49.49080 8.31332 19074 ft 397 kts 205°
2026-05-04 16:35 49.42052 8.26147 22582 ft 356 kts 209°
2026-05-04 16:35 49.35246 8.19888 22472 ft 413 kts 214°
2026-05-04 16:36 49.32843 8.17382 22826 ft 419 kts 216°
2026-05-04 16:36 49.28344 8.12162 24875 ft 394 kts 224°
2026-05-04 16:37 49.26066 8.04483 25186 ft 423 kts 266°
2026-05-04 16:37 49.26511 7.99970 25426 ft 438 kts 284°
2026-05-04 16:37 49.29389 7.91611 26188 ft 454 kts 305°
2026-05-04 16:38 49.34515 7.85754 26887 ft 476 kts 335°
2026-05-04 16:39 49.44511 7.85471 27894 ft 498 kts 16°
2026-05-04 16:39 49.53967 7.91434 29250 ft 498 kts 24°
2026-05-04 16:40 49.60297 7.95777 29992 ft 499 kts 22°
2026-05-04 16:40 49.66726 7.99890 29972 ft 499 kts 21°
2026-05-04 16:41 49.82747 8.09763 29989 ft 496 kts 20°
2026-05-04 16:43 49.98774 8.19749 29956 ft 496 kts 20°
2026-05-04 16:43 50.08366 8.25764 29954 ft 495 kts 20°
2026-05-04 16:45 50.27451 8.37804 29980 ft 492 kts 19°
2026-05-04 16:46 50.36633 8.44284 31305 ft 468 kts 24°
2026-05-04 16:46 50.42597 8.47614 32793 ft 446 kts 16°
2026-05-04 16:47 50.48296 8.50970 34035 ft 431 kts 17°
2026-05-04 16:47 50.53939 8.53774 34858 ft 423 kts 13°
2026-05-04 16:48 50.62772 8.57891 34328 ft 462 kts 13°
2026-05-04 16:48 50.65896 8.59354 34109 ft 475 kts 14°
2026-05-04 16:49 50.72335 8.62451 33583 ft 486 kts 14°
2026-05-04 16:49 50.78827 8.64385 32972 ft 467 kts 349°
2026-05-04 16:50 50.84818 8.61052 32532 ft 454 kts 322°
2026-05-04 16:50 50.89136 8.54175 32391 ft 441 kts 304°
2026-05-04 16:51 50.93118 8.46651 31883 ft 449 kts 306°
2026-05-04 16:51 50.95150 8.42876 31635 ft 452 kts 306°
2026-05-04 16:51 50.99227 8.35256 31122 ft 454 kts 306°
2026-05-04 16:52 51.03931 8.28463 30630 ft 464 kts 323°
2026-05-04 16:52 51.06753 8.25926 30397 ft 466 kts 327°
2026-05-04 16:53 51.12485 8.21051 30030 ft 469 kts 327°
2026-05-04 16:54 51.23809 8.10906 30007 ft 468 kts 326°
2026-05-04 16:55 51.40867 7.95524 29976 ft 471 kts 326°
2026-05-04 16:56 51.55881 7.85085 29983 ft 476 kts 340°
2026-05-04 16:57 51.65417 7.80659 29963 ft 475 kts 339°
2026-05-04 16:58 51.78088 7.74510 29973 ft 476 kts 339°
2026-05-04 16:59 51.84159 7.70548 29962 ft 463 kts 318°
2026-05-04 17:00 51.90825 7.53899 29956 ft 441 kts 289°
2026-05-04 17:00 51.94753 7.40321 28124 ft 443 kts 290°
2026-05-04 17:01 51.96943 7.32887 27093 ft 435 kts 291°
2026-05-04 17:01 51.99527 7.24107 25889 ft 427 kts 291°
2026-05-04 17:02 52.02056 7.15473 24733 ft 420 kts 291°
2026-05-04 17:02 52.04541 7.06949 23571 ft 415 kts 291°
2026-05-04 17:03 52.05772 7.02718 22914 ft 413 kts 291°
2026-05-04 17:03 52.06993 6.98515 22294 ft 409 kts 291°
2026-05-04 17:03 52.09365 6.90148 20988 ft 405 kts 291°
2026-05-04 17:04 52.11672 6.81867 19836 ft 399 kts 292°
2026-05-04 17:04 52.14009 6.73757 18724 ft 392 kts 291°
2026-05-04 17:05 52.15861 6.65475 17548 ft 386 kts 288°
2026-05-04 17:05 52.17592 6.57268 16417 ft 380 kts 288°
2026-05-04 17:06 52.19325 6.49287 15361 ft 373 kts 289°
2026-05-04 17:06 52.20196 6.45323 14841 ft 370 kts 289°
2026-05-04 17:07 52.21922 6.37471 13818 ft 366 kts 289°
2026-05-04 17:07 52.22499 6.34843 13430 ft 364 kts 289°
2026-05-04 17:07 52.23624 6.29709 12696 ft 361 kts 289°
2026-05-04 17:07 52.24463 6.25867 12167 ft 358 kts 289°
2026-05-04 17:08 52.25294 6.22052 11648 ft 355 kts 289°
2026-05-04 17:08 52.26928 6.14524 10892 ft 343 kts 289°
2026-05-04 17:08 52.27709 6.10916 10728 ft 332 kts 289°
2026-05-04 17:09 52.28462 6.07428 10583 ft 321 kts 289°
2026-05-04 17:09 52.29194 6.04038 10446 ft 311 kts 289°
2026-05-04 17:09 52.29900 6.00761 10314 ft 302 kts 288°
2026-05-04 17:10 52.31248 5.94483 10072 ft 284 kts 288°
2026-05-04 17:10 52.33157 5.85563 9369 ft 274 kts 288°
2026-05-04 17:11 52.33783 5.82630 9092 ft 272 kts 288°
2026-05-04 17:11 52.34405 5.79713 8810 ft 271 kts 288°
2026-05-04 17:11 52.35635 5.73928 8267 ft 268 kts 288°
2026-05-04 17:12 52.36244 5.71061 7999 ft 267 kts 288°
2026-05-04 17:12 52.37453 5.65351 7446 ft 264 kts 288°
2026-05-04 17:13 52.38231 5.56790 6962 ft 254 kts 260°
2026-05-04 17:14 52.37354 5.48016 6839 ft 263 kts 260°
2026-05-04 17:14 52.37061 5.45075 6788 ft 262 kts 260°
2026-05-04 17:14 52.36485 5.39273 6737 ft 258 kts 260°
2026-05-04 17:15 52.36198 5.36381 6684 ft 257 kts 261°
2026-05-04 17:15 52.35625 5.30628 6630 ft 256 kts 261°
2026-05-04 17:16 52.35043 5.24798 6575 ft 261 kts 261°
2026-05-04 17:16 52.34168 5.16075 6460 ft 257 kts 260°
2026-05-04 17:17 52.33877 5.13193 6448 ft 256 kts 260°
2026-05-04 17:17 52.31142 5.06110 6365 ft 259 kts 218°
2026-05-04 17:18 52.29694 5.04327 6333 ft 261 kts 217°
2026-05-04 17:18 52.26786 5.00806 6249 ft 259 kts 217°
2026-05-04 17:19 52.23910 4.97297 6182 ft 257 kts 217°
2026-05-04 17:19 52.21058 4.93794 6121 ft 256 kts 218°
2026-05-04 17:20 52.18206 4.90283 6061 ft 257 kts 218°
2026-05-04 17:20 52.15334 4.86746 5994 ft 260 kts 218°
2026-05-04 17:20 52.13890 4.84967 5952 ft 261 kts 218°
2026-05-04 17:21 52.10986 4.81394 5884 ft 262 kts 218°
2026-05-04 17:21 52.08095 4.77841 5814 ft 263 kts 218°
2026-05-04 17:22 52.06643 4.76059 5773 ft 262 kts 217°
2026-05-04 17:22 52.05187 4.74273 5743 ft 262 kts 217°
2026-05-04 17:23 52.00830 4.68938 5636 ft 261 kts 218°
2026-05-04 17:23 51.99381 4.67167 5624 ft 260 kts 217°
2026-05-04 17:23 51.96488 4.63634 5554 ft 260 kts 217°
2026-05-04 17:24 51.95046 4.61874 5510 ft 260 kts 217°
2026-05-04 17:24 51.90708 4.56596 5435 ft 261 kts 217°
2026-05-04 17:25 51.89305 4.54738 5386 ft 261 kts 227°
2026-05-04 17:25 51.87016 4.50192 5142 ft 266 kts 233°
2026-05-04 17:26 51.84685 4.45379 4110 ft 271 kts 232°
2026-05-04 17:26 51.81161 4.38292 2601 ft 269 kts 232°
2026-05-04 17:27 51.78849 4.33705 2086 ft 251 kts 233°
2026-05-04 17:27 51.76873 4.29424 1987 ft 221 kts 253°
2026-05-04 17:28 51.77300 4.25146 1997 ft 180 kts 308°
2026-05-04 17:29 51.79855 4.21270 2021 ft 159 kts 323°
2026-05-04 17:29 51.82349 4.17733 2025 ft 163 kts 322°
2026-05-04 17:30 51.84985 4.18036 2029 ft 155 kts 50°
2026-05-04 17:31 51.86351 4.20743 2029 ft 157 kts 51°
2026-05-04 17:31 51.88101 4.24990 2017 ft 141 kts 54°
2026-05-04 17:32 51.89149 4.27622 2011 ft 143 kts 55°
2026-05-04 17:33 51.90792 4.31749 1655 ft 142 kts 54°
2026-05-04 17:33 51.91322 4.33083 1465 ft 140 kts 52°
2026-05-04 17:34 51.92930 4.37128 908 ft 146 kts 54°
2026-05-04 17:34 51.93461 4.38512 659 ft 144 kts 53°
2026-05-04 17:35 51.95063 4.42458 121 ft 139 kts 51°
2026-05-04 17:35 51.96034 4.44891 -6 ft 99 kts 59°
2026-05-04 17:35 51.96204 4.45318 -6 ft 12 kts 54°
2026-05-04 17:36 51.96244 4.45413 -6 ft 10 kts 60°
2026-05-04 17:36 51.96248 4.45541 -6 ft 15 kts 114°
2026-05-04 17:36 51.96166 4.45648 -6 ft 16 kts 183°
2026-05-04 17:36 51.96108 4.45563 -6 ft 10 kts 237°
2026-05-04 17:37 51.96072 4.45474 -6 ft 9 kts 237°
2026-05-04 17:37 51.96035 4.45381 -6 ft 12 kts 237°
2026-05-04 17:37 51.95981 4.45247 -6 ft 15 kts 237°
2026-05-04 17:37 51.95925 4.45106 -6 ft 15 kts 237°
2026-05-04 17:38 51.95871 4.44971 -6 ft 14 kts 237°
2026-05-04 17:38 51.95819 4.44842 -6 ft 13 kts 237°
2026-05-04 17:38 51.95770 4.44719 -6 ft 13 kts 237°
2026-05-04 17:38 51.95719 4.44592 -6 ft 15 kts 237°
2026-05-04 17:39 51.95614 4.44331 -6 ft 13 kts 237°
2026-05-04 17:39 51.95565 4.44208 -6 ft 13 kts 237°
2026-05-04 17:39 51.95515 4.44083 -6 ft 13 kts 237°
2026-05-04 17:40 51.95465 4.43958 -6 ft 14 kts 237°
2026-05-04 17:40 51.95410 4.43820 -6 ft 14 kts 237°
2026-05-04 17:40 51.95356 4.43687 -6 ft 14 kts 237°
2026-05-04 17:40 51.95308 4.43565 -6 ft 10 kts 237°
2026-05-04 17:41 51.95275 4.43493 -6 ft 6 kts 214°
2026-05-04 17:41 51.95250 4.43504 -6 ft 5 kts 148°
2026-05-04 17:41 51.95214 4.43543 -6 ft 8 kts 145°
2026-05-04 17:41 51.95196 4.43553 -6 ft 4 kts 179°
2026-05-04 17:42 51.95161 4.43487 -6 ft 8 kts 237°
2026-05-04 17:42 51.95140 4.43435 -6 ft 5 kts 237°
2026-05-04 17:42 51.95130 4.43405 -6 ft 2 kts 251°
2026-05-04 17:42 51.95139 4.43379 -6 ft 4 kts 315°
2026-05-04 17:43 51.95156 4.43359 -6 ft 3 kts 326°
2026-05-04 17:43 51.95166 4.43347 -6 ft 0 kts 327°
2026-05-04 17:43 51.95167 4.43347 -6 ft 0 kts 327°